Date,TemperatureHighF,TemperatureAvgF,TemperatureLowF,DewpointHighF,DewpointAvgF,DewpointLowF,HumidityHigh,HumidityAvg,HumidityLow,PressureMaxIn,PressureMinIn,WindSpeedMaxMPH,WindSpeedAvgMPH,GustSpeedMaxMPH,PrecipitationSumIn
2013-1-1,54.8,47.4,38.8,54.0,42.3,31.0,97,83,65,30.26,29.96,14,6,19,0.06
2013-1-2,46.0,38.5,33.3,31.0,29.0,28.0,86,70,50,30.35,30.25,10,5,16,0.00
2013-1-3,45.0,38.7,28.7,32.0,29.6,25.0,90,71,56,30.47,30.34,10,4,14,0.00
2013-1-4,44.0,40.4,36.4,39.0,35.7,30.0,93,84,58,30.53,30.38,8,4,10,0.13
2013-1-5,55.5,44.9,38.7,45.0,39.9,37.0,94,84,58,30.39,30.21,8,3,10,0.01
2013-1-6,59.0,44.2,33.9,37.0,32.7,29.0,95,68,32,30.43,30.29,11,4,13,0.01
2013-1-7,54.6,43.8,30.8,41.0,34.6,26.0,90,71,50,30.34,30.07,12,5,14,0.00
2013-1-8,51.1,49.2,46.8,50.0,46.9,41.0,96,92,72,30.07,29.88,9,5,16,0.79
2013-1-9,57.3,54.5,51.7,55.0,52.9,50.0,96,94,91,30.01,29.81,18,4,20,0.94
2013-1-10,62.7,52.5,45.5,51.0,46.8,41.0,96,82,57,30.03,29.94,18,4,23,0.01
2013-1-11,70.9,57.9,45.1,59.0,52.3,43.0,94,83,60,29.97,29.76,14,5,23,0.01
2013-1-12,74.4,61.2,42.3,67.0,55.7,33.0,97,83,57,29.92,29.61,23,7,25,0.01
2013-1-13,49.4,41.1,35.6,33.0,28.4,25.0,72,61,45,30.21,29.93,21,10,25,0.00
2013-1-14,48.0,38.9,31.7,30.0,26.2,22.0,70,61,46,30.28,30.11,13,8,19,0.00
2013-1-15,40.0,37.0,34.1,34.0,30.4,23.0,91,78,63,30.27,30.13,17,9,22,0.01
2013-1-16,51.9,38.5,26.7,32.0,23.8,15.0,79,59,24,30.36,30.20,14,3,20,0.00
2013-1-17,63.5,46.1,31.3,38.0,33.5,27.0,90,65,34,30.49,30.31,10,3,13,0.00
2013-1-18,63.7,48.0,32.9,43.0,36.1,30.0,89,66,33,30.51,30.29,10,3,13,0.00
2013-1-19,66.1,53.3,44.2,48.0,43.7,37.0,90,71,47,30.29,30.11,14,5,16,0.00
2013-1-20,73.6,53.7,38.3,48.0,42.0,36.0,95,70,27,30.24,30.05,7,3,12,0.00
2013-1-21,67.9,53.4,41.1,46.0,42.3,39.0,94,69,40,30.24,30.11,8,3,11,0.00
2013-1-22,69.8,54.8,39.9,52.0,45.1,37.0,90,71,53,30.29,30.16,11,3,15,0.00
2013-1-23,73.2,59.7,49.0,57.0,52.7,47.0,95,79,56,30.29,30.15,15,5,17,0.00
2013-1-24,80.0,63.8,51.7,62.0,55.5,50.0,96,77,47,30.20,30.03,10,3,15,0.01
2013-1-25,79.7,63.3,50.5,59.0,51.6,44.0,78,67,48,30.14,29.96,13,7,19,0.00
2013-1-26,61.4,53.8,48.0,57.0,50.1,43.0,94,87,78,30.16,30.05,13,3,13,0.00
2013-1-27,74.5,65.8,58.4,63.0,59.6,56.0,92,81,60,30.06,29.89,20,10,27,0.00
2013-1-28,73.8,68.7,64.7,65.0,63.3,62.0,92,83,69,29.97,29.79,20,10,28,0.00
2013-1-29,76.7,66.6,54.3,65.0,53.2,20.0,89,66,26,29.81,29.45,21,12,39,0.01
2013-1-30,57.3,50.1,40.1,31.0,22.7,12.0,67,37,18,30.20,29.74,23,8,29,0.00
2013-1-31,69.5,50.2,33.1,40.0,27.7,18.0,74,47,16,30.29,30.14,11,2,18,0.00
2013-2-1,69.1,54.9,42.2,44.0,37.7,32.0,78,54,34,30.34,30.13,14,5,22,0.00
2013-2-2,70.7,58.9,48.9,52.0,46.2,36.0,87,65,41,30.29,30.15,11,4,17,0.00
2013-2-3,68.5,57.4,43.4,49.0,40.2,30.0,83,55,26,30.33,29.98,12,6,18,0.00
2013-2-4,74.2,63.5,54.6,58.0,54.2,50.0,88,73,47,29.97,29.75,14,5,21,0.00
2013-2-5,75.6,60.0,45.2,54.0,47.2,41.0,92,67,31,29.98,29.83,11,3,12,0.00
2013-2-6,74.4,64.1,58.5,61.0,57.1,53.0,90,78,60,29.95,29.77,13,5,21,0.00
2013-2-7,83.8,67.0,58.2,61.0,52.6,38.0,93,66,22,30.07,29.82,25,8,28,0.00
2013-2-8,67.0,56.9,46.8,46.0,35.5,24.0,74,48,20,30.21,30.07,19,7,26,0.00
2013-2-9,66.5,57.9,53.8,64.0,53.4,37.0,96,86,50,30.07,29.74,18,11,24,0.00
2013-2-10,67.5,59.7,50.2,64.0,44.2,26.0,93,62,21,29.98,29.66,32,5,47,0.22
2013-2-11,57.8,52.7,49.0,48.0,45.4,39.0,90,77,50,30.06,29.94,16,5,19,0.55
2013-2-12,72.4,55.8,44.2,54.0,44.0,23.0,96,72,20,30.04,29.79,22,7,28,0.01
2013-2-13,60.0,47.1,34.4,39.0,34.7,28.0,89,65,30,30.16,30.01,10,3,22,0.00
2013-2-14,70.8,57.6,43.9,45.0,40.1,35.0,78,55,28,30.11,29.94,14,5,15,0.00
2013-2-15,56.9,50.1,41.1,44.0,36.0,24.0,81,60,40,30.39,30.03,17,7,21,0.00
2013-2-16,64.7,54.1,35.9,42.0,32.1,27.0,72,45,25,30.46,30.19,12,4,14,0.00
2013-2-17,68.4,57.1,43.7,51.0,40.8,33.0,82,57,32,30.18,29.91,23,9,31,0.00
2013-2-18,80.0,67.6,59.8,58.0,47.8,23.0,82,57,13,29.91,29.79,21,11,25,0.00
2013-2-19,60.7,59.1,58.1,38.0,36.3,35.0,46,43,39,30.09,30.05,17,10,17,0.00
2013-2-20,61.1,54.3,52.1,60.0,45.1,35.0,97,73,46,30.08,29.61,24,13,26,0.02
2013-2-21,73.8,64.5,50.5,63.0,40.7,19.0,96,51,13,29.82,29.53,23,8,30,0.00
2013-2-22,57.7,48.2,38.2,40.0,33.5,28.0,81,58,41,30.06,29.79,12,6,18,0.00
2013-2-23,67.2,51.1,36.8,39.0,32.9,25.0,83,53,22,30.06,29.86,13,4,18,0.00
2013-2-24,72.0,59.0,43.2,58.0,46.4,36.0,85,64,45,29.89,29.53,21,11,26,0.00
2013-2-25,62.8,52.8,44.7,59.0,37.6,25.0,89,58,30,29.83,29.50,29,11,38,0.08
2013-2-26,62.7,50.5,36.8,44.0,32.9,28.0,73,53,31,29.95,29.81,12,5,21,0.00
2013-2-27,60.8,50.9,41.2,40.0,30.7,24.0,72,48,25,30.23,29.82,16,7,27,0.00
2013-2-28,61.2,48.5,37.2,35.0,28.9,23.0,75,50,25,30.33,30.18,12,5,20,0.00
2013-3-1,66.9,49.8,33.3,33.0,28.4,23.0,85,49,20,30.29,30.13,17,4,24,0.00
2013-3-2,62.4,49.3,37.5,39.0,32.1,27.0,75,54,31,30.43,30.23,16,5,20,0.00
2013-3-3,74.4,58.7,42.0,45.0,37.1,32.0,78,48,24,30.23,29.84,21,8,27,0.00
2013-3-4,88.0,68.4,56.2,50.0,41.8,18.0,77,45,8,29.84,29.62,14,5,21,0.00
2013-3-5,66.2,54.9,42.3,46.0,24.3,13.0,64,33,15,30.36,29.69,32,9,42,0.00
2013-3-6,63.9,49.8,35.1,34.0,24.0,16.0,67,39,18,30.45,30.20,12,5,15,0.00
2013-3-7,69.9,58.4,47.0,54.0,42.2,27.0,79,56,40,30.21,30.04,19,10,27,0.00
2013-3-8,63.9,60.7,57.9,61.0,57.5,54.0,96,89,78,30.10,29.95,20,11,26,0.01
2013-3-9,70.5,65.6,60.0,64.0,61.6,58.0,94,87,80,29.95,29.59,23,12,33,1.28
2013-3-10,61.1,56.4,45.8,58.0,40.9,33.0,95,59,36,30.09,29.70,19,8,31,0.01
2013-3-11,66.3,51.8,37.9,42.0,31.4,22.0,83,50,24,30.17,29.98,12,5,16,0.00
2013-3-12,78.4,60.4,45.7,45.0,37.1,31.0,78,45,18,30.22,30.00,26,6,29,0.00
2013-3-13,72.9,61.3,51.1,48.0,38.9,33.0,60,45,30,30.40,30.23,16,7,22,0.00
2013-3-14,75.4,63.1,51.5,52.0,46.6,39.0,82,57,38,30.33,30.16,15,7,19,0.00
2013-3-15,78.9,66.3,55.8,55.0,51.8,47.0,90,62,37,30.18,29.91,19,8,27,0.00
2013-3-16,80.9,70.2,58.7,61.0,55.3,50.0,82,61,41,29.93,29.65,20,11,30,0.00
2013-3-17,79.9,70.3,63.6,61.0,59.0,54.0,85,69,45,29.75,29.60,21,6,26,0.00
2013-3-18,81.1,69.7,58.9,63.0,54.3,46.0,96,63,31,29.91,29.65,13,5,19,0.00
2013-3-19,83.0,65.6,54.6,59.0,51.3,45.0,71,61,41,29.96,29.77,20,6,23,0.00
2013-3-20,69.1,60.9,48.9,48.0,42.5,36.0,84,54,30,30.23,29.99,16,8,23,0.40
2013-3-21,72.0,60.9,56.4,60.0,47.9,41.0,81,63,53,30.00,29.56,24,10,29,0.00
2013-3-22,75.5,65.0,52.3,63.0,56.6,46.0,95,76,51,29.75,29.57,13,5,21,0.00
2013-3-23,76.7,57.5,49.8,59.0,50.3,46.0,91,78,49,29.77,29.57,10,4,14,0.00
2013-3-24,56.2,49.0,40.3,47.0,29.7,25.0,79,49,31,30.16,29.91,28,13,37,0.00
2013-3-25,57.8,48.3,36.1,28.0,22.3,15.0,58,38,22,30.38,30.15,15,8,22,0.00
2013-3-26,64.4,51.2,35.6,33.0,25.3,17.0,81,40,17,30.48,30.25,20,5,21,0.00
2013-3-27,68.4,57.3,46.8,50.0,40.0,28.0,69,54,40,30.27,30.09,22,12,29,0.00
2013-3-28,70.7,62.3,55.2,59.0,55.3,49.0,88,78,66,30.15,30.06,20,10,25,0.00
2013-3-29,75.9,66.3,58.8,59.0,57.4,56.0,91,75,53,30.12,29.99,19,9,24,0.00
2013-3-30,80.2,70.0,63.4,63.0,60.6,57.0,87,73,53,30.03,29.81,16,7,24,0.00
2013-3-31,76.8,69.7,65.1,67.0,63.6,57.0,92,81,69,29.93,29.82,14,4,17,0.02
2013-4-1,83.0,70.7,56.8,65.0,60.4,55.0,94,72,45,30.01,29.83,13,5,21,0.00
2013-4-2,72.8,65.8,50.7,65.0,61.7,48.0,93,87,75,29.98,29.81,22,8,37,0.87
2013-4-3,58.9,50.4,47.8,56.0,48.2,45.0,95,92,88,30.15,29.81,27,10,32,0.13
2013-4-4,59.7,51.2,45.3,46.0,43.4,40.0,89,76,59,30.24,30.11,16,8,22,0.00
2013-4-5,67.7,52.1,39.8,52.0,44.7,38.0,95,77,52,30.27,30.02,15,5,22,0.01
2013-4-6,77.8,65.6,53.2,59.0,54.0,47.0,85,67,52,30.02,29.79,21,11,25,0.00
2013-4-7,78.7,69.1,61.8,65.0,61.5,58.0,88,77,60,29.85,29.67,27,11,30,0.00
2013-4-8,72.2,69.0,66.2,67.0,64.1,61.0,90,84,79,29.74,29.60,27,13,31,0.00
2013-4-9,81.8,74.0,69.1,68.0,66.8,64.0,91,78,61,29.64,29.52,26,14,34,0.00
2013-4-10,73.7,53.3,42.5,68.0,47.0,39.0,90,79,56,29.97,29.59,29,11,30,0.05
2013-4-11,67.6,55.5,44.8,45.0,39.0,33.0,76,56,35,29.99,29.78,12,6,18,0.00
2013-4-12,78.7,63.5,48.9,50.0,46.7,44.0,89,58,30,29.98,29.80,15,5,18,0.00
2013-4-13,76.0,66.2,57.2,59.0,52.9,48.0,82,64,43,29.91,29.74,18,8,21,0.03
2013-4-14,92.3,71.5,58.7,64.0,59.0,53.0,90,68,26,29.77,29.51,16,8,24,0.00
2013-4-15,86.2,76.3,68.8,67.0,65.4,61.0,90,70,46,29.72,29.60,18,10,22,0.00
2013-4-16,85.9,75.2,68.6,69.0,66.1,63.0,86,74,56,29.82,29.71,23,12,28,0.00
2013-4-17,80.8,75.6,72.2,71.0,69.1,67.0,92,80,65,29.80,29.60,25,15,32,0.00
2013-4-18,75.3,61.0,49.2,71.0,50.2,35.0,91,69,46,30.10,29.56,26,12,29,0.25
2013-4-19,66.5,53.0,41.1,40.0,33.4,25.0,86,51,22,30.31,30.09,12,5,21,0.00
2013-4-20,71.3,60.5,49.4,47.0,34.9,30.0,61,40,23,30.20,29.95,24,11,31,0.00
2013-4-21,76.8,64.0,52.7,59.0,52.2,47.0,83,67,45,30.12,29.96,24,10,30,0.00
2013-4-22,81.2,70.0,58.5,62.0,58.7,55.0,88,69,48,30.04,29.80,18,10,25,0.00
2013-4-23,72.2,61.9,48.9,64.0,53.8,41.0,86,75,62,30.13,29.76,20,11,25,0.00
2013-4-24,62.7,52.6,42.2,41.0,36.3,32.0,80,56,37,30.29,30.13,22,10,27,0.00
2013-4-25,67.1,60.1,53.3,48.0,44.5,39.0,80,57,44,30.32,30.14,13,6,14,0.04
2013-4-26,78.5,67.8,60.5,67.0,60.8,45.0,92,79,50,30.13,29.96,21,8,25,0.00
2013-4-27,82.9,73.9,67.0,69.0,64.2,57.0,95,74,51,30.03,29.88,13,5,19,0.00
2013-4-28,86.5,74.7,65.0,65.0,61.3,56.0,93,66,38,29.98,29.77,16,6,21,0.00
2013-4-29,84.5,73.2,66.3,67.0,63.1,59.0,93,72,44,29.87,29.71,24,8,39,0.00
2013-4-30,84.0,73.4,64.9,65.0,63.6,62.0,92,73,50,29.78,29.65,17,8,18,0.00
2013-5-1,87.8,77.1,67.4,68.0,65.7,64.0,90,70,47,29.89,29.70,15,8,19,0.00
2013-5-2,76.0,50.1,47.1,65.0,42.9,38.0,90,76,65,30.37,29.92,23,12,32,0.06
2013-5-3,68.1,54.7,42.3,44.0,34.1,28.0,80,51,23,30.37,30.05,22,7,25,0.00
2013-5-4,82.2,64.2,45.3,44.0,38.0,30.0,84,44,16,30.05,29.85,11,3,21,0.00
2013-5-5,74.6,62.6,51.1,49.0,42.3,32.0,67,49,31,30.13,29.96,14,5,18,0.00
2013-5-6,73.8,69.0,57.1,53.0,49.5,47.0,74,51,41,30.12,29.96,6,2,8,0.00
2013-5-7,81.4,76.7,71.5,58.0,54.8,51.0,60,47,36,29.92,29.86,12,6,15,0.00
2013-5-8,78.6,72.0,63.4,65.0,61.9,55.0,86,71,56,29.95,29.81,22,10,27,0.00
2013-5-9,72.6,69.6,62.0,69.0,65.2,60.0,94,86,74,29.96,29.78,19,6,33,0.30
2013-5-10,83.6,71.3,64.2,68.0,63.5,60.0,95,78,49,30.00,29.79,23,6,30,0.85
2013-5-11,78.5,73.5,66.9,56.0,52.6,50.0,67,49,37,30.12,30.04,15,6,19,0.01
2013-5-12,78.3,68.0,58.5,58.0,52.4,47.0,87,59,34,30.25,30.09,16,5,25,0.00
2013-5-13,84.9,70.0,53.3,58.0,51.8,46.0,90,57,27,30.23,30.08,14,4,18,0.00
2013-5-14,84.8,74.1,64.1,67.0,59.8,53.0,77,62,35,30.16,29.92,21,9,26,0.00
2013-5-15,74.7,73.2,71.3,67.0,66.8,66.0,86,80,76,30.01,29.96,16,12,28,0.01
2013-5-16,88.2,80.9,71.5,73.0,71.6,68.0,90,74,61,29.76,29.64,19,11,23,0.06
2013-5-17,91.0,81.6,73.6,74.0,71.9,70.0,91,74,52,29.79,29.69,18,10,24,0.00
2013-5-18,91.2,81.3,72.8,72.0,69.0,65.0,87,68,48,29.83,29.69,33,12,35,0.00
2013-5-19,89.0,80.5,71.8,72.0,69.0,65.0,87,69,54,29.76,29.63,22,13,32,0.00
2013-5-20,91.3,81.0,72.4,72.0,69.6,67.0,88,70,50,29.76,29.59,24,13,27,0.00
2013-5-21,87.2,76.9,69.1,73.0,67.8,57.0,87,74,61,29.83,29.64,19,10,26,0.00
2013-5-22,91.0,75.5,57.2,68.0,58.0,52.0,93,60,28,29.89,29.74,11,4,16,0.00
2013-5-23,87.7,80.0,73.6,73.0,71.5,69.0,90,76,59,29.97,29.81,20,10,25,0.00
2013-5-24,78.6,73.8,68.5,73.0,69.1,66.0,92,85,77,30.06,29.93,16,8,20,0.88
2013-5-25,80.8,73.5,69.6,71.0,68.7,66.0,95,85,69,30.08,29.96,21,10,32,0.56
2013-5-26,85.7,77.5,72.0,73.0,70.5,69.0,92,79,63,30.02,29.88,21,11,26,0.00
2013-5-27,86.2,77.5,71.5,72.0,69.9,68.0,88,78,60,29.93,29.75,23,13,28,0.00
2013-5-28,86.8,78.7,72.7,72.0,68.9,67.0,85,73,58,29.82,29.68,26,16,33,0.00
2013-5-29,84.0,77.6,74.3,74.0,70.6,68.0,89,79,65,29.77,29.61,30,16,44,0.04
2013-5-30,86.3,79.5,75.0,73.0,71.3,69.0,85,76,64,29.76,29.66,26,12,34,0.00
2013-5-31,90.0,82.0,76.4,76.0,72.9,71.0,86,74,61,29.79,29.66,22,12,28,0.00
2013-6-1,92.9,83.5,76.2,75.0,72.6,71.0,85,71,50,29.85,29.69,23,10,32,0.00
2013-6-2,87.7,78.6,71.1,73.0,63.5,59.0,78,61,38,30.02,29.84,15,6,23,0.00
2013-6-3,92.1,79.4,65.6,67.0,63.5,59.0,85,60,35,29.93,29.76,13,6,16,0.00
2013-6-4,90.8,81.6,71.9,69.0,66.8,63.0,88,63,44,29.83,29.71,19,9,25,0.00
2013-6-5,92.9,81.5,70.8,71.0,67.5,65.0,88,64,41,29.83,29.68,21,8,30,0.00
2013-6-6,93.3,81.7,74.7,70.0,65.8,60.0,80,60,33,29.88,29.72,15,6,24,0.00
2013-6-7,85.1,76.0,68.8,65.0,60.3,52.0,86,61,32,29.98,29.82,11,5,14,0.00
2013-6-8,88.3,75.8,67.4,70.0,60.7,55.0,73,60,44,29.89,29.72,15,7,24,0.00
2013-6-9,88.5,76.1,66.8,71.0,69.3,64.0,92,80,52,29.91,29.77,20,6,26,0.20
2013-6-10,95.4,82.4,72.6,71.0,67.1,57.0,89,64,29,29.94,29.83,13,6,19,0.00
2013-6-11,92.6,82.9,75.0,73.0,70.5,66.0,90,68,45,29.97,29.85,18,9,26,0.00
2013-6-12,94.0,83.0,75.1,73.0,71.1,68.0,89,69,42,29.99,29.86,20,9,24,0.00
2013-6-13,94.6,82.3,75.3,74.0,70.6,66.0,88,69,44,30.00,29.86,25,7,28,0.00
2013-6-14,88.3,81.3,76.0,73.0,71.8,70.0,86,73,55,29.94,29.85,12,4,14,0.00
2013-6-15,88.8,82.5,77.8,74.0,72.2,69.0,86,72,53,29.94,29.82,12,5,16,0.00
2013-6-16,94.2,84.6,75.7,73.0,70.5,67.0,85,64,41,29.95,29.82,16,6,18,0.00
2013-6-17,95.8,85.4,76.6,74.0,71.2,68.0,85,64,40,29.94,29.76,14,7,23,0.00
2013-6-18,85.9,79.9,69.5,74.0,70.1,65.0,92,73,60,29.91,29.83,14,7,24,1.48
2013-6-19,93.7,84.5,75.8,73.0,70.9,69.0,88,65,45,29.90,29.83,15,8,19,0.00
2013-6-20,92.4,84.3,75.9,72.0,69.8,66.0,82,63,43,29.98,29.86,16,10,25,0.00
2013-6-21,93.3,84.7,76.7,73.0,69.5,64.0,84,62,41,30.00,29.88,28,11,28,0.00
2013-6-22,93.1,84.1,75.7,72.0,68.8,63.0,84,62,37,29.97,29.80,18,11,27,0.00
2013-6-23,92.5,83.9,75.3,72.0,67.4,61.0,85,60,35,29.91,29.80,24,12,32,0.00
2013-6-24,94.7,84.6,75.7,71.0,69.6,65.0,84,62,41,29.96,29.80,29,13,32,0.00
2013-6-25,94.9,85.8,77.8,72.0,69.7,65.0,81,61,39,29.92,29.77,22,13,27,0.00
2013-6-26,96.2,89.3,80.3,75.0,71.6,69.0,76,57,42,29.90,29.79,15,9,21,0.00
2013-6-27,100.5,94.1,83.8,68.0,62.3,54.0,55,36,22,29.89,29.82,10,4,13,0.00
2013-6-28,102.3,89.3,77.4,75.0,67.4,60.0,77,51,26,29.92,29.73,9,4,13,0.00
2013-6-29,103.9,91.7,79.3,73.0,66.0,57.0,69,46,21,29.81,29.66,14,4,16,0.00
2013-6-30,92.1,83.7,71.0,71.0,66.4,61.0,90,58,39,29.90,29.74,15,5,26,0.28
2013-7-1,86.4,80.3,73.1,62.0,56.0,50.0,59,44,29,29.98,29.84,15,7,21,0.00
2013-7-2,89.7,79.2,67.0,59.0,52.0,42.0,72,42,19,30.04,29.91,15,5,17,0.00
2013-7-3,92.1,82.0,66.8,58.0,51.8,45.0,67,37,20,30.00,29.84,12,4,15,0.00
2013-7-4,92.0,81.3,71.9,65.0,60.0,52.0,74,50,27,29.93,29.82,12,5,16,0.00
2013-7-5,95.6,85.1,73.0,67.0,61.1,53.0,73,47,24,29.93,29.76,16,8,19,0.00
2013-7-6,94.7,84.1,75.2,69.0,66.2,58.0,77,57,30,29.87,29.74,18,7,25,0.00
2013-7-7,95.9,85.2,76.0,73.0,69.6,63.0,84,62,34,29.91,29.80,23,9,35,0.00
2013-7-8,87.4,80.9,76.8,75.0,71.9,68.0,86,75,56,30.04,29.91,15,8,22,0.00
2013-7-9,96.4,85.0,75.0,73.0,69.9,64.0,88,63,36,30.09,29.92,16,7,23,0.00
2013-7-10,99.9,84.8,76.5,73.0,70.8,63.0,86,65,30,30.02,29.90,19,7,19,0.00
2013-7-14,89.7,81.3,69.3,69.0,66.2,62.0,92,61,44,29.86,29.78,24,10,31,1.26
2013-7-15,74.5,70.5,66.7,72.0,68.5,65.0,95,93,87,29.98,29.82,23,10,32,3.16
2013-7-16,86.3,77.5,72.5,74.0,71.7,70.0,94,83,58,30.09,29.98,17,9,22,0.18
2013-7-17,87.1,75.3,71.3,74.0,70.9,69.0,94,87,58,30.14,30.04,33,5,36,0.96
2013-7-18,89.6,79.7,71.9,73.0,70.4,66.0,94,75,47,30.13,29.94,12,4,16,0.00
2013-7-19,92.4,82.0,73.1,73.0,69.1,64.0,91,67,40,30.02,29.84,17,4,22,0.00
2013-7-20,92.2,82.5,75.0,72.0,70.3,66.0,87,68,43,29.94,29.77,14,6,21,0.00
2013-7-21,93.4,81.7,75.8,76.0,72.3,69.0,88,75,47,29.88,29.79,21,7,30,0.00
2013-7-22,93.7,84.8,77.5,75.0,73.3,70.0,87,70,49,29.92,29.80,20,10,31,0.00
2013-7-23,94.1,85.2,78.9,75.0,72.0,66.0,83,67,40,29.92,29.78,14,9,21,0.00
2013-7-24,94.0,85.2,77.0,75.0,73.6,71.0,86,69,49,29.93,29.80,18,6,19,0.00
2013-7-25,95.7,85.7,77.8,73.0,71.9,69.0,84,65,42,29.96,29.87,10,5,16,0.00
2013-7-26,97.1,86.8,78.2,75.0,71.5,67.0,78,62,39,29.94,29.78,14,6,21,0.00
2013-7-27,89.1,81.8,75.9,73.0,69.5,65.0,81,67,45,29.94,29.83,11,7,17,0.00
2013-7-28,93.2,82.6,72.6,75.0,71.3,68.0,88,70,47,29.90,29.77,16,6,21,0.00
2013-7-29,94.9,85.6,78.6,75.0,70.9,63.0,83,64,35,29.93,29.84,21,12,29,0.00
2013-7-30,95.8,85.8,76.7,74.0,71.0,67.0,83,63,40,30.01,29.88,21,11,24,0.00
2013-7-31,98.8,87.1,77.3,72.0,67.7,62.0,80,55,30,30.02,29.85,15,5,22,0.00
2013-8-1,99.0,88.5,80.3,73.0,69.8,66.0,73,55,34,29.96,29.81,9,5,13,0.00
2013-8-2,97.8,88.2,80.2,71.0,67.2,60.0,67,51,30,29.90,29.79,18,6,21,0.00
2013-8-3,96.9,86.9,77.7,72.0,69.7,66.0,80,58,37,29.94,29.84,15,9,24,0.00
2013-8-4,95.4,86.6,77.7,74.0,71.9,70.0,82,63,45,30.00,29.85,20,8,22,0.00
2013-8-5,97.5,86.9,77.5,73.0,69.0,63.0,75,57,33,29.96,29.78,23,8,27,0.00
2013-8-6,99.0,88.0,77.2,74.0,70.6,66.0,79,58,35,29.87,29.71,17,9,26,0.00
2013-8-7,101.0,88.5,77.2,75.0,71.1,64.0,83,59,32,29.84,29.69,21,9,23,0.00
2013-8-8,100.0,88.1,76.8,74.0,69.3,60.0,83,57,27,29.82,29.69,17,8,26,0.00
2013-8-9,99.2,87.4,77.1,72.0,67.4,59.0,83,54,27,29.89,29.78,17,6,22,0.00
2013-8-10,99.6,88.6,77.9,73.0,69.1,62.0,77,54,31,29.98,29.85,26,5,27,0.00
2013-8-11,96.1,86.0,78.5,76.0,71.7,68.0,79,63,42,30.01,29.88,25,5,31,0.00
2013-8-12,95.4,85.3,76.3,73.0,70.5,67.0,85,63,41,30.00,29.85,15,7,20,0.00
2013-8-13,98.7,88.6,79.1,72.0,69.1,62.0,74,54,30,29.96,29.80,12,6,15,0.00
2013-8-14,95.9,83.9,78.0,78.0,71.8,66.0,82,68,48,29.94,29.83,13,4,17,0.37
2013-8-15,88.5,78.8,71.5,80.0,73.0,66.0,90,82,63,29.96,29.85,14,5,17,0.77
2013-8-16,87.9,77.3,70.2,79.0,70.7,67.0,92,81,58,30.03,29.88,16,4,28,0.01
2013-8-17,90.7,80.7,71.7,75.0,67.0,61.0,82,65,40,30.02,29.88,12,5,16,0.00
2013-8-18,91.7,82.0,71.4,68.0,62.9,60.0,69,54,35,30.01,29.91,11,4,14,0.00
2013-8-19,92.2,83.2,74.0,72.0,65.5,61.0,69,56,43,30.00,29.84,10,4,15,0.00
2013-8-20,92.6,83.8,73.4,69.0,64.7,61.0,71,54,36,29.97,29.86,17,7,27,0.00
2013-8-21,90.7,81.9,74.5,76.0,70.5,66.0,81,69,55,30.03,29.89,15,6,29,0.00
2013-8-22,94.2,85.6,76.5,77.0,71.4,68.0,81,64,45,30.03,29.85,13,4,18,0.00
2013-8-23,94.7,85.8,77.4,77.0,70.7,67.0,77,62,44,29.96,29.82,12,4,17,0.00
2013-8-24,94.9,85.7,75.5,75.0,69.6,65.0,72,59,47,29.99,29.86,15,4,19,0.00
2013-8-25,93.3,85.5,77.1,75.0,69.6,67.0,75,60,45,30.03,29.94,17,6,20,0.00
2013-8-26,89.9,81.3,75.0,73.0,69.6,66.0,79,68,54,30.08,29.95,22,8,22,0.00
2013-8-27,81.6,76.6,72.1,76.0,70.5,67.0,87,81,74,30.06,29.96,14,7,21,0.51
2013-8-28,93.8,82.2,74.3,78.0,72.1,68.0,87,73,53,30.07,29.93,8,4,12,0.00
2013-8-29,98.2,86.2,75.8,77.0,70.0,65.0,77,60,40,30.04,29.89,8,2,9,0.00
2013-8-30,99.1,86.3,75.6,76.0,68.0,63.0,70,56,37,29.97,29.80,9,2,11,0.00
2013-8-31,98.7,86.3,78.7,74.0,69.3,64.0,67,58,40,29.87,29.74,8,3,11,0.00
2013-9-9,90.3,82.9,76.1,72.0,68.7,66.0,75,63,51,29.92,29.83,24,11,30,0.00
2013-9-10,88.8,79.9,73.9,75.0,70.2,68.0,85,73,57,30.01,29.90,18,8,33,0.00
2013-9-11,91.8,82.2,75.2,75.0,69.6,64.0,84,67,46,30.05,29.92,13,6,16,0.00
2013-9-12,92.9,83.2,73.0,74.0,67.5,62.0,77,60,40,30.02,29.85,8,2,14,0.00
2013-9-13,95.4,84.7,74.8,74.0,65.7,60.0,71,55,36,29.91,29.74,12,3,17,0.00
2013-9-14,94.0,84.5,73.6,71.0,65.1,60.0,65,53,40,29.88,29.77,16,4,22,0.00
2013-9-15,90.0,83.0,76.2,73.0,69.5,67.0,78,64,52,29.96,29.85,13,6,17,0.00
2013-9-16,90.3,80.5,74.6,73.0,68.9,64.0,82,69,51,30.01,29.89,14,5,24,1.20
2013-9-17,87.0,80.4,74.8,77.0,72.4,70.0,86,77,64,30.02,29.87,11,3,14,0.01
2013-9-18,89.8,82.1,74.9,75.0,70.5,67.0,83,69,52,29.96,29.80,14,5,19,0.01
2013-9-19,85.7,78.7,74.3,78.0,71.9,69.0,87,80,67,29.90,29.77,18,5,42,0.97
2013-9-20,78.4,74.2,70.9,75.0,71.1,68.0,91,89,87,29.85,29.75,22,6,24,0.72
2013-9-21,81.6,72.6,65.5,68.0,62.4,50.0,90,72,46,29.93,29.81,16,8,21,0.72
2013-9-22,81.8,70.5,59.3,61.0,53.9,49.0,72,57,39,29.89,29.75,10,4,12,0.00
2013-9-23,85.7,72.0,59.6,64.0,55.4,49.0,70,57,40,29.81,29.70,7,1,11,0.00
2013-9-24,90.9,76.7,63.1,70.0,60.2,53.0,74,58,41,29.89,29.78,7,2,9,0.00
2013-9-25,92.6,80.0,67.4,71.0,63.8,57.0,74,59,43,29.85,29.70,11,3,15,0.00
2013-9-26,89.0,80.8,70.8,67.0,60.7,54.0,67,51,37,29.83,29.74,15,6,19,0.00
2013-9-27,85.8,79.1,74.4,77.0,72.4,68.0,85,80,69,29.85,29.75,33,7,33,0.32
2013-9-28,87.9,78.6,69.6,79.0,73.0,65.0,88,83,73,29.97,29.79,0,0,0,0.10
2013-9-29,75.5,68.0,62.4,69.0,63.1,59.0,89,84,76,30.03,29.90,9,2,13,0.22
2013-9-30,85.3,71.2,57.5,71.0,61.5,53.0,87,73,52,29.93,29.76,8,2,10,0.01
2013-10-1,86.5,77.7,66.8,74.0,66.9,56.0,81,70,59,29.86,29.77,15,6,18,0.01
2013-10-2,87.9,80.2,74.6,76.0,71.7,69.0,87,76,61,29.90,29.78,19,9,22,0.00
2013-10-3,88.2,80.8,75.0,74.0,71.1,68.0,85,73,57,29.86,29.75,22,10,26,0.00
2013-10-4,88.1,80.2,74.5,73.0,69.9,68.0,82,71,57,29.84,29.75,20,10,25,0.00
2013-10-5,81.8,76.5,74.5,75.0,70.2,67.0,83,80,75,29.93,29.81,15,6,21,0.00
2013-10-6,58.3,29.1,58.3,38.0,-31.0,-99.9,47,24,47,30.09,30.09,3,-498,3,0.00
2013-10-7,83.5,65.5,48.0,57.0,46.2,37.0,69,51,33,30.16,30.00,7,2,13,0.00
2013-10-8,83.7,71.0,56.6,59.0,50.3,44.0,65,49,35,30.05,29.91,14,4,18,0.00
2013-10-9,82.0,71.8,61.6,63.0,55.7,47.0,69,58,47,30.02,29.89,17,6,21,0.00
2013-10-10,82.8,73.7,65.7,69.0,63.3,58.0,82,70,58,29.98,29.81,19,9,26,0.00
2013-10-11,85.0,78.1,72.1,74.0,69.6,64.0,84,75,65,29.88,29.76,19,8,25,0.00
2013-10-12,87.8,79.6,71.2,78.0,72.4,64.0,87,79,65,29.97,29.83,19,6,27,0.27
2013-10-13,75.3,71.2,68.1,71.0,67.2,64.0,89,87,83,30.12,29.96,16,7,26,0.01
2013-10-14,80.3,74.5,71.9,75.0,70.9,69.0,91,89,81,30.04,29.85,16,8,22,0.01
2013-10-15,76.6,69.7,55.2,73.0,66.3,52.0,90,88,87,30.00,29.84,16,6,24,0.16
2013-10-16,64.1,57.6,53.1,61.0,54.6,51.0,92,90,84,30.08,29.97,16,6,16,0.49
2013-10-17,72.1,61.7,51.7,61.0,53.8,48.0,86,76,60,30.12,29.95,9,4,12,0.49
2013-10-18,71.1,64.7,55.1,63.0,56.7,49.0,81,75,69,30.03,29.84,22,6,33,0.00
2013-10-19,65.3,55.3,46.0,53.0,46.3,41.0,83,73,57,30.21,30.04,18,6,27,0.00
2013-10-20,73.1,60.3,47.6,56.0,48.3,39.0,76,65,54,30.09,29.86,17,5,22,0.00
2013-10-21,74.7,66.3,59.3,67.0,58.0,51.0,80,75,65,30.07,29.88,12,6,20,0.00
2013-10-22,74.4,61.9,51.5,57.0,50.1,41.0,80,67,47,30.17,30.05,15,4,18,0.00
2013-10-23,80.4,62.9,47.8,61.0,48.1,39.0,75,60,42,30.16,30.04,7,2,9,0.00
2013-10-24,79.6,65.7,51.0,61.0,49.9,42.0,74,58,42,30.20,30.09,8,2,10,0.00
2013-10-25,75.8,67.9,56.8,62.0,55.9,45.0,73,66,56,30.28,30.16,13,6,18,0.00
2013-10-26,78.3,69.9,64.6,69.0,63.0,59.0,86,79,70,30.17,30.00,17,8,23,0.00
2013-10-27,69.6,65.3,61.5,62.0,59.9,56.0,85,83,77,30.09,29.97,9,2,11,0.09
2013-10-28,78.8,71.4,65.1,72.0,66.1,61.0,90,83,72,30.03,29.91,23,9,24,0.09
2013-10-29,81.3,74.6,70.8,73.0,68.5,65.0,88,81,72,30.01,29.90,20,9,26,0.00
2013-10-30,78.6,74.1,71.4,74.0,70.1,67.0,90,87,81,29.97,29.74,13,3,18,0.10
2013-10-31,78.5,70.9,56.0,70.0,59.7,40.0,91,70,44,29.85,29.68,16,4,26,0.01
2013-11-1,80.7,63.0,47.4,58.0,45.3,38.0,72,55,36,30.08,29.80,14,3,22,0.01
2013-11-2,70.6,61.2,51.9,49.0,40.8,34.0,60,48,35,30.29,30.09,11,4,16,0.00
2013-11-3,68.0,58.6,46.3,51.0,40.8,32.0,65,53,44,30.21,29.96,17,7,22,0.00
2013-11-4,64.4,62.5,60.4,61.0,56.2,51.0,88,80,67,30.01,29.91,17,6,25,0.08
2013-11-5,73.8,68.9,64.4,69.0,65.3,61.0,91,88,83,29.98,29.85,13,6,17,0.02
2013-11-6,69.5,59.2,51.4,67.0,54.6,43.0,90,85,74,30.33,29.92,21,6,27,0.21
2013-11-7,63.5,53.7,43.6,48.0,41.9,36.0,76,65,52,30.49,30.34,10,4,14,0.21
2013-11-8,63.1,57.0,50.3,45.0,42.0,40.0,67,58,47,30.38,30.12,12,4,15,0.00
2013-11-9,66.8,61.4,56.8,57.0,51.7,43.0,79,70,58,30.16,30.06,16,7,19,0.00
2013-11-10,68.8,61.2,54.2,62.0,55.4,49.0,85,81,78,30.29,30.15,7,2,9,0.00
2013-11-11,72.4,61.2,49.9,62.0,54.0,46.0,87,78,67,30.27,30.13,5,1,9,0.01
2013-11-12,59.2,51.2,40.4,52.0,43.8,29.0,83,76,65,30.65,30.23,18,8,27,0.01
2013-11-13,54.8,43.6,33.4,40.0,30.8,23.0,68,61,53,30.66,30.39,10,4,14,0.00
2013-11-14,60.6,49.2,41.0,43.0,34.5,27.0,61,57,43,30.39,30.02,15,5,21,0.00
2013-11-15,77.1,63.9,54.5,63.0,53.1,43.0,77,69,59,30.02,29.80,14,4,16,0.00
2013-11-16,74.4,69.3,62.5,66.0,62.5,55.0,83,79,74,29.84,29.68,18,7,22,0.00
2013-11-17,87.3,73.6,58.2,74.0,61.7,43.0,88,69,43,29.92,29.72,9,1,16,0.00
2013-11-18,72.7,65.2,56.4,55.0,49.4,43.0,65,57,52,30.08,29.91,11,4,15,0.00
2013-11-19,72.1,63.1,54.9,50.0,46.1,41.0,65,54,45,30.13,29.95,13,5,16,0.00
2013-11-20,70.3,63.9,58.4,62.0,56.3,49.0,85,76,65,29.97,29.84,15,7,18,0.00
2013-11-21,76.5,70.4,57.7,71.0,65.9,53.0,89,85,81,30.08,29.88,17,4,25,0.15
2013-11-22,55.1,39.0,35.1,51.0,35.8,32.0,89,88,85,30.44,30.07,21,11,30,0.25
2013-11-23,40.2,37.5,35.3,38.0,34.9,32.0,90,90,89,30.52,30.43,17,9,21,0.01
2013-11-24,40.3,37.0,33.4,37.0,32.9,29.0,89,85,82,30.53,30.34,14,7,19,0.08
2013-11-25,40.8,37.4,33.5,38.0,34.2,30.0,88,87,86,30.36,30.11,15,4,19,0.14
2013-11-26,51.7,42.8,37.0,45.0,37.3,33.0,87,81,71,30.38,30.15,19,9,25,0.01
2013-11-27,49.9,40.3,30.1,38.0,30.3,22.0,74,68,60,30.51,30.36,21,3,22,0.01
2013-11-28,54.4,43.7,35.6,38.0,31.4,26.0,70,63,53,30.45,30.33,8,3,11,0.00
2013-11-29,59.0,47.6,34.5,51.0,40.0,25.0,82,75,61,30.51,30.34,9,3,16,0.00
2013-11-30,62.9,56.8,51.8,56.0,51.0,46.0,85,81,79,30.35,30.15,11,5,15,0.00
2013-12-1,69.1,61.4,56.8,62.0,56.5,52.0,88,84,78,30.17,29.91,11,4,18,0.00
2013-12-2,68.9,56.4,50.1,62.0,52.3,46.0,87,86,79,29.92,29.78,10,1,13,0.00
2013-12-3,67.6,60.0,56.1,40.0,37.6,35.0,50,44,37,29.65,29.60,0,0,4,0.00
2013-12-4,80.4,62.7,50.6,63.0,50.3,38.0,77,64,51,29.75,29.61,10,1,12,0.00
2013-12-5,62.3,40.3,30.3,55.0,32.8,24.0,79,75,70,30.13,29.74,21,9,26,0.00
2013-12-6,33.2,30.8,27.5,28.0,25.7,22.0,83,81,78,30.50,30.10,16,8,21,0.03
2013-12-7,28.4,26.3,23.9,23.0,21.0,19.0,81,80,80,30.53,30.30,15,7,21,0.00
2013-12-8,42.7,34.1,27.1,39.0,29.7,22.0,86,84,81,30.30,30.04,6,1,10,0.03
2013-12-9,36.6,34.4,32.5,33.0,31.2,30.0,89,88,85,30.43,30.07,14,6,20,0.02
2013-12-10,45.2,35.0,25.3,39.0,30.4,22.0,88,83,77,30.54,30.35,14,4,20,0.02
2013-12-11,53.5,42.0,31.9,44.0,33.6,25.0,79,72,66,30.58,30.33,9,3,12,0.00
2013-12-12,50.8,41.4,31.7,40.0,31.7,23.0,73,69,65,30.61,30.30,8,2,11,0.00
2013-12-13,48.5,46.0,43.1,44.0,39.2,34.0,86,77,68,30.30,29.87,11,4,16,0.12
2013-12-14,49.5,43.1,37.8,45.0,38.6,32.0,88,84,79,30.36,29.85,19,4,22,0.01
2013-12-15,58.3,42.7,30.8,46.0,34.8,26.0,83,74,63,30.41,30.26,6,1,8,0.01
2013-12-16,66.8,48.0,33.3,52.0,37.2,27.0,78,67,56,30.30,30.16,5,1,6,0.01
2013-12-17,69.1,49.6,35.3,51.0,36.6,27.0,73,62,49,30.32,30.22,4,1,7,0.01
2013-12-18,67.4,51.4,36.7,56.0,40.9,27.0,75,68,60,30.28,30.02,15,3,21,0.00
2013-12-19,68.2,61.8,55.5,59.0,54.6,48.0,82,77,72,30.02,29.76,30,9,36,0.00
2013-12-20,69.3,64.0,46.3,64.0,59.7,42.0,88,85,82,29.80,29.60,22,4,31,0.02
2013-12-21,65.4,50.2,39.6,58.0,44.7,36.0,91,82,67,29.80,29.56,13,3,25,0.82
2013-12-22,48.9,44.2,37.8,41.0,36.7,29.0,81,75,70,30.39,29.81,17,6,22,0.01
2013-12-23,52.7,40.4,28.6,41.0,30.9,22.0,77,69,60,30.54,30.38,6,2,8,0.01
2013-12-24,58.2,45.1,33.7,42.0,32.3,25.0,72,62,49,30.54,30.25,19,5,22,0.00
2013-12-25,59.5,48.6,41.3,51.0,39.9,30.0,78,72,59,30.42,30.23,16,4,20,0.00
2013-12-26,53.3,43.8,35.0,44.0,35.6,28.0,78,73,68,30.44,30.32,7,2,10,0.00
2013-12-27,56.3,51.8,45.2,46.0,41.8,35.0,80,69,63,30.44,30.32,5,1,7,0.00
2013-12-28,60.6,50.3,41.6,50.0,41.7,33.0,80,72,67,30.32,29.98,11,3,13,0.00
2013-12-29,56.1,46.8,32.3,50.0,41.5,27.0,83,81,79,30.32,29.94,25,6,30,0.00
2013-12-30,46.3,37.5,30.6,38.0,30.5,25.0,83,76,68,30.41,30.26,13,4,17,0.00
2013-12-31,55.6,43.6,32.9,41.0,33.3,25.0,75,67,58,30.48,30.23,10,3,15,0.00
2014-1-1,68.1,52.3,40.6,54.0,41.6,30.0,73,67,61,30.22,29.94,22,5,25,0.00
2014-1-2,50.9,40.3,32.3,41.0,28.9,20.0,70,64,57,30.47,30.14,20,8,28,0.00